Location: Aragüita
(10.0436°N, 67.8028°W)
Time: 14:10:23
(UTC+00:00)

Cosmos 1862 Rocket - Pass Details

Date: 24 January 2026
Orbit: 596 x 627 km, 82.5° (Epoch: 8 February)

Event Time Altitude Azimuth Distance (km) Brightness Sun altitude
Rises 23:06:43 0° 216° (SW) 2,902 8.0 -8.7°
Reaches altitude 10° 23:09:41 10° 237° (WSW) 1,993 7.6 -9.4°
Maximum altitude 23:12:27 16° 276° (W) 1,608 6.7 -10.0°
Drops below altitude 10° 23:15:14 10° 315° (NW) 1,985 6.5 -10.7°
Sets 23:18:11 0° 337° (NNW) 2,885 7.1 -11.4°
